sat.trackr.live / text

‹ back to catalog

STARLINK-34641

NORAD 64797 · 2025-150H

PAYLOAD ACTIVE UNKNOWN

§ Identity

Operator
Country
US
Launch date
2025-07-16
Launch site
AFWTR
Launch vehicle
Mass (kg)
RCS (m²)

Purposes: comms

External: N2YO · Heavens-Above · Gunter

§ Orbital elements

Epoch: 2026-05-25T04:03:18.785952Z

Period
96.11 min
Inclination
70.0005°
Eccentricity
0.0003115
Mean motion
14.98336501 rev/d
Perigee alt
569.9 km
Apogee alt
574.2 km
Semi-major
6,950.2 km
B*
4.2489e-4
RAAN
301.5823°
Arg perigee
267.1578°
Mean anomaly
92.9225°
Rev number
4,880

§ Raw data

STARLINK-346411 64797U 25150H   26145.16896743  .00004981  00000+0  42489-3 0  99992 64797  70.0005 301.5823 0003115 267.1578  92.9225 14.98336501 48804

JSON: /api/v1/satellites/64797 · /tle

For live sub-satellite position, see the globe view (requires WebGL).

§ Visibility from observer

Set your observer location to see the next 7 days of passes ≥ 10°. The values pass through the URL so the page stays shareable.

No JS? Fill the form by hand. The geolocation button needs JavaScript.